QPF
0.00 0.00 0.00 0.00 0.00 0.00 0.00 0.00 0.00 0.00 0.00 0.00 0.00 0.00 0.00 0.00 0.00 0.00 0.00 0.00 0.00 0.00 0.00 0.00 0.00 0.01 0.01 0.01 0.01 0.01 0.02 0.04 0.04 0.05 0.07 0.07 0.07 0.07 0.07 0.04 0.03 0.04 0.05 0.05
0.00 0.00 0.00 0.00 0.00 0.00 0.00 0.00 0.00 0.00 0.00 0.00 0.00 0.00 0.00 0.00 0.00 0.00 0.00 0.00 0.00 0.00 0.00 0.00 0.00 0.00 0.01 0.01 0.02 0.01 0.02 0.03 0.04 0.04 0.06 0.06 0.06 0.06 0.05 0.04 0.04 0.03 0.02 0.04
0.00 0.00 0.00 0.00 0.00 0.00 0.00 0.00 0.00 0.00 0.00 0.00 0.00 0.00 0.00 0.00 0.00 0.00 0.00 0.00 0.00 0.00 0.00 0.00 0.00 0.00 0.01 0.01 0.02 0.01 0.02 0.03 0.03 0.04 0.04 0.04 0.05 0.04 0.04 0.05 0.05 0.04 0.04 0.06
0.00 0.00 0.00 0.00 0.00 0.00 0.00 0.00 0.00 0.00 0.00 0.00 0.00 0.00 0.00 0.00 0.00 0.00 0.00 0.00 0.00 0.00 0.01 0.01 0.00 0.00 0.01 0.01 0.01 0.01 0.02 0.03 0.03 0.03 0.04 0.05 0.05 0.05 0.06 0.06 0.05 0.04 0.04 0.04
0.00 0.00 0.00 0.00 0.00 0.00 0.00 0.00 0.00 0.00 0.00 0.00 0.00 0.00 0.00 0.00 0.00 0.00 0.00 0.00 0.00 0.01 0.04 0.02 0.01 0.00 0.01 0.00 0.00 0.01 0.02 0.02 0.03 0.03 0.04 0.04 0.03 0.03 0.04 0.05 0.05 0.05 0.05 0.04
0.00 0.00 0.00 0.00 0.00 0.00 0.00 0.00 0.00 0.00 0.00 0.00 0.00 0.00 0.00 0.00 0.00 0.00 0.00 0.00 0.00 0.01 0.02 0.03 0.02 0.01 0.01 0.00 0.00 0.00 0.01 0.01 0.03 0.03 0.03 0.03 0.03 0.04 0.04 0.05 0.06 0.05 0.06 0.05
0.00 0.00 0.00 0.00 0.00 0.00 0.00 0.00 0.00 0.01 0.01 0.00 0.00 0.00 0.00 0.00 0.00 0.00 0.00 0.00 0.00 0.00 0.01 0.08 0.04 0.00 0.01 0.01 0.00 0.00 0.00 0.01 0.02 0.03 0.03 0.02 0.02 0.03 0.04 0.05 0.05 0.05 0.05 0.06
0.00 0.00 0.00 0.00 0.00 0.00 0.00 0.00 0.00 0.00 0.00 0.00 0.00 0.00 0.00 0.00 0.00 0.00 0.00 0.00 0.00 0.00 0.01 0.03 0.02 0.00 0.00 0.01 0.00 0.00 0.00 0.01 0.02 0.02 0.02 0.02 0.02 0.02 0.03 0.04 0.04 0.04 0.04 0.05
0.00 0.00 0.00 0.00 0.00 0.00 0.00 0.00 0.00 0.00 0.00 0.00 0.00 0.00 0.00 0.00 0.00 0.00 0.00 0.00 0.00 0.00 0.00 0.00 0.00 0.00 0.00 0.00 0.00 0.00 0.00 0.01 0.02 0.02 0.02 0.02 0.01 0.02 0.02 0.02 0.02 0.02 0.02 0.02
0.00 0.00 0.00 0.00 0.00 0.00 0.00 0.00 0.00 0.00 0.00 0.00 0.00 0.00 0.00 0.00 0.00 0.00 0.00 0.00 0.00 0.00 0.00 0.00 0.00 0.00 0.00 0.00 0.00 0.00 0.00 0.01 0.01 0.01 0.01 0.01 0.01 0.01 0.01 0.01 0.02 0.02 0.01 0.02
0.00 0.00 0.00 0.00 0.00 0.00 0.00 0.00 0.00 0.00 0.00 0.00 0.00 0.00 0.00 0.00 0.00 0.00 0.00 0.00 0.00 0.00 0.00 0.00 0.00 0.00 0.00 0.00 0.00 0.00 0.00 0.00 0.00 0.00 0.00 0.01 0.01 0.01 0.01 0.01 0.01 0.02 0.02 0.03
0.00 0.00 0.00 0.00 0.00 0.00 0.00 0.00 0.00 0.00 0.00 0.00 0.00 0.00 0.00 0.00 0.00 0.00 0.00 0.00 0.00 0.00 0.00 0.00 0.00 0.00 0.00 0.00 0.00 0.00 0.00 0.00 0.00 0.00 0.00 0.01 0.01 0.01 0.01 0.02 0.02 0.02 0.02 0.02
0.00 0.00 0.00 0.00 0.00 0.00 0.00 0.00 0.00 0.00 0.00 0.00 0.00 0.00 0.00 0.00 0.00 0.00 0.00 0.00 0.00 0.00 0.00 0.00 0.00 0.00 0.00 0.00 0.00 0.00 0.00 0.00 0.00 0.00 0.00 0.01 0.01 0.01 0.02 0.02 0.03 0.03 0.03 0.02
0.00 0.00 0.00 0.00 0.00 0.00 0.00 0.00 0.00 0.00 0.00 0.00 0.00 0.00 0.00 0.00 0.00 0.00 0.00 0.00 0.00 0.00 0.00 0.00 0.00 0.00 0.00 0.00 0.00 0.00 0.00 0.00 0.00 0.00 0.00 0.01 0.01 0.02 0.02 0.03 0.03 0.03 0.03 0.03
0.00 0.00 0.00 0.00 0.00 0.00 0.00 0.00 0.00 0.00 0.00 0.00 0.00 0.00 0.00 0.00 0.00 0.00 0.00 0.00 0.00 0.00 0.00 0.00 0.00 0.00 0.00 0.00 0.00 0.00 0.00 0.00 0.00 0.00 0.00 0.01 0.01 0.02 0.03 0.03 0.02 0.02 0.02 0.03
0.00 0.00 0.00 0.00 0.00 0.00 0.00 0.00 0.00 0.00 0.00 0.00 0.00 0.00 0.00 0.00 0.00 0.00 0.00 0.00 0.00 0.00 0.00 0.00 0.00 0.00 0.00 0.00 0.00 0.00 0.00 0.00 0.00 0.00 0.00 0.01 0.01 0.02 0.02 0.01 0.01 0.01 0.02 0.02
0.00 0.00 0.00 0.00 0.00 0.00 0.00 0.00 0.00 0.00 0.00 0.00 0.00 0.00 0.00 0.00 0.00 0.00 0.00 0.00 0.00 0.00 0.00 0.00 0.00 0.00 0.00 0.00 0.00 0.01 0.01 0.01 0.01 0.00 0.01 0.02 0.02 0.02 0.01 0.00 0.01 0.02 0.02 0.03
0.00 0.00 0.00 0.00 0.00 0.00 0.00 0.00 0.00 0.00 0.00 0.00 0.00 0.00 0.00 0.00 0.00 0.00 0.00 0.00 0.00 0.00 0.00 0.01 0.00 0.00 0.00 0.00 0.01 0.02 0.02 0.02 0.02 0.02 0.02 0.02 0.02 0.01 0.01 0.01 0.02 0.02 0.02 0.05
0.00 0.00 0.00 0.00 0.00 0.00 0.00 0.00 0.00 0.00 0.00 0.00 0.00 0.00 0.00 0.00 0.00 0.00 0.00 0.00 0.00 0.00 0.00 0.02 0.01 0.00 0.00 0.01 0.02 0.02 0.03 0.03 0.04 0.04 0.03 0.02 0.01 0.01 0.01 0.01 0.03 0.04 0.04 0.05
0.00 0.00 0.00 0.00 0.00 0.00 0.00 0.00 0.00 0.00 0.00 0.00 0.00 0.00 0.00 0.00 0.00 0.00 0.00 0.00 0.00 0.00 0.00 0.01 0.02 0.00 0.00 0.01 0.02 0.03 0.04 0.07 0.06 0.03 0.02 0.02 0.01 0.01 0.02 0.02 0.03 0.03 0.03 0.02
0.00 0.00 0.00 0.00 0.00 0.00 0.00 0.00 0.00 0.01 0.01 0.00 0.00 0.00 0.00 0.00 0.00 0.00 0.00 0.00 0.00 0.00 0.00 0.00 0.01 0.00 0.01 0.01 0.02 0.03 0.04 0.04 0.03 0.02 0.01 0.01 0.01 0.02 0.03 0.02 0.03 0.04 0.02 0.01
0.00 0.00 0.00 0.00 0.00 0.00 0.00 0.00 0.00 0.00 0.00 0.00 0.00 0.00 0.00 0.00 0.00 0.00 0.00 0.00 0.00 0.00 0.00 0.00 0.00 0.01 0.02 0.02 0.02 0.03 0.03 0.03 0.02 0.02 0.02 0.02 0.02 0.02 0.03 0.03 0.03 0.02 0.01 0.01
0.00 0.00 0.00 0.00 0.00 0.00 0.00 0.00 0.00 0.00 0.00 0.00 0.00 0.00 0.00 0.00 0.00 0.00 0.00 0.00 0.00 0.00 0.01 0.01 0.01 0.03 0.03 0.03 0.03 0.04 0.06 0.05 0.03 0.03 0.03 0.03 0.04 0.03 0.04 0.04 0.03 0.02 0.02 0.01
0.00 0.00 0.00 0.00 0.00 0.00 0.00 0.00 0.00 0.00 0.00 0.00 0.00 0.00 0.00 0.00 0.01 0.01 0.01 0.01 0.01 0.01 0.01 0.01 0.01 0.01 0.02 0.03 0.03 0.03 0.04 0.04 0.04 0.04 0.04 0.05 0.06 0.06 0.05 0.03 0.04 0.03 0.03 0.03
0.00 0.01 0.00 0.00 0.00 0.00 0.00 0.01 0.01 0.01 0.00 0.00 0.00 0.01 0.01 0.01 0.02 0.02 0.02 0.02 0.01 0.00 0.01 0.01 0.01 0.01 0.01 0.03 0.03 0.03 0.04 0.05 0.04 0.04 0.06 0.05 0.06 0.06 0.08 0.08 0.06 0.06 0.04 0.04
0.01 0.01 0.01 0.01 0.00 0.00 0.00 0.00 0.01 0.01 0.00 0.00 0.00 0.00 0.01 0.02 0.02 0.02 0.02 0.02 0.01 0.01 0.01 0.01 0.01 0.02 0.03 0.04 0.05 0.05 0.05 0.06 0.05 0.05 0.06 0.08 0.10 0.09 0.10 0.11 0.08 0.07 0.06 0.06
MSLP
1010.99 1011.61 1012.10 1012.45 1012.65 1012.73 1012.71 1012.64 1012.56 1012.50 1012.49 1012.52 1012.60 1012.72 1012.88 1013.07 1013.28 1013.50 1013.73 1013.95 1014.16 1014.33 1014.48 1014.60 1014.70 1014.80 1014.90 1015.03 1015.18 1015.37 1015.57 1015.78 1015.97 1016.11 1016.20 1016.23 1016.19 1016.10 1015.98 1015.85 1015.72 1015.61 1015.54 1015.51
1011.62 1012.13 1012.52 1012.76 1012.88 1012.91 1012.88 1012.82 1012.77 1012.75 1012.75 1012.76 1012.80 1012.84 1012.90 1012.98 1013.09 1013.23 1013.41 1013.62 1013.84 1014.06 1014.26 1014.43 1014.57 1014.69 1014.79 1014.90 1015.03 1015.18 1015.36 1015.56 1015.75 1015.92 1016.04 1016.11 1016.10 1016.03 1015.91 1015.77 1015.61 1015.47 1015.36 1015.29
1012.08 1012.46 1012.73 1012.87 1012.93 1012.94 1012.94 1012.95 1012.97 1013.01 1013.05 1013.07 1013.06 1013.01 1012.95 1012.89 1012.85 1012.88 1012.97 1013.13 1013.36 1013.62 1013.88 1014.13 1014.34 1014.51 1014.65 1014.77 1014.90 1015.04 1015.21 1015.40 1015.60 1015.79 1015.94 1016.03 1016.06 1016.02 1015.91 1015.77 1015.60 1015.44 1015.30 1015.19
1012.34 1012.60 1012.75 1012.81 1012.84 1012.87 1012.94 1013.05 1013.19 1013.32 1013.42 1013.45 1013.39 1013.24 1013.03 1012.79 1012.58 1012.45 1012.43 1012.52 1012.73 1013.01 1013.35 1013.68 1013.98 1014.24 1014.45 1014.62 1014.78 1014.93 1015.11 1015.31 1015.52 1015.73 1015.91 1016.03 1016.09 1016.08 1015.99 1015.86 1015.70 1015.52 1015.36 1015.23
1012.46 1012.59 1012.64 1012.65 1012.67 1012.76 1012.92 1013.15 1013.42 1013.67 1013.84 1013.89 1013.78 1013.52 1013.14 1012.71 1012.31 1011.99 1011.83 1011.82 1011.99 1012.29 1012.68 1013.11 1013.52 1013.88 1014.19 1014.44 1014.66 1014.86 1015.07 1015.29 1015.52 1015.75 1015.95 1016.10 1016.19 1016.20 1016.14 1016.02 1015.87 1015.70 1015.54 1015.39
1012.48 1012.51 1012.48 1012.46 1012.50 1012.65 1012.92 1013.28 1013.68 1014.04 1014.28 1014.34 1014.18 1013.81 1013.28 1012.67 1012.06 1011.56 1011.24 1011.13 1011.24 1011.54 1011.97 1012.47 1012.99 1013.46 1013.88 1014.23 1014.53 1014.81 1015.07 1015.32 1015.59 1015.84 1016.05 1016.22 1016.33 1016.35 1016.31 1016.21 1016.08 1015.92 1015.77 1015.63
1012.50 1012.44 1012.36 1012.32 1012.39 1012.60 1012.96 1013.44 1013.95 1014.40 1014.69 1014.76 1014.56 1014.10 1013.44 1012.66 1011.89 1011.22 1010.76 1010.54 1010.58 1010.85 1011.31 1011.87 1012.47 1013.04 1013.56 1014.02 1014.41 1014.76 1015.08 1015.38 1015.67 1015.94 1016.18 1016.35 1016.47 1016.50 1016.47 1016.39 1016.27 1016.14 1016.00 1015.88
1012.57 1012.46 1012.35 1012.30 1012.38 1012.63 1013.06 1013.60 1014.18 1014.69 1015.02 1015.09 1014.87 1014.35 1013.59 1012.71 1011.81 1011.02 1010.44 1010.13 1010.10 1010.34 1010.79 1011.38 1012.03 1012.67 1013.28 1013.81 1014.28 1014.70 1015.08 1015.43 1015.75 1016.04 1016.28 1016.46 1016.57 1016.61 1016.58 1016.50 1016.40 1016.29 1016.18 1016.09
1012.73 1012.59 1012.45 1012.39 1012.47 1012.74 1013.18 1013.75 1014.36 1014.88 1015.23 1015.30 1015.07 1014.53 1013.74 1012.81 1011.85 1011.00 1010.35 1009.98 1009.89 1010.08 1010.50 1011.08 1011.73 1012.40 1013.03 1013.62 1014.14 1014.61 1015.04 1015.42 1015.77 1016.08 1016.33 1016.51 1016.61 1016.65 1016.62 1016.54 1016.45 1016.36 1016.28 1016.23
1012.96 1012.81 1012.66 1012.58 1012.65 1012.90 1013.32 1013.86 1014.45 1014.96 1015.30 1015.38 1015.16 1014.64 1013.88 1012.97 1012.03 1011.18 1010.51 1010.10 1009.97 1010.10 1010.46 1010.98 1011.58 1012.22 1012.84 1013.42 1013.96 1014.46 1014.91 1015.33 1015.71 1016.03 1016.29 1016.48 1016.58 1016.61 1016.58 1016.51 1016.43 1016.36 1016.31 1016.29
1013.22 1013.07 1012.92 1012.83 1012.87 1013.08 1013.44 1013.93 1014.47 1014.94 1015.26 1015.35 1015.16 1014.71 1014.03 1013.20 1012.33 1011.54 1010.90 1010.49 1010.31 1010.38 1010.64 1011.06 1011.56 1012.11 1012.66 1013.20 1013.72 1014.21 1014.68 1015.11 1015.52 1015.86 1016.15 1016.35 1016.46 1016.50 1016.48 1016.42 1016.35 1016.30 1016.28 1016.30
1013.46 1013.33 1013.18 1013.09 1013.10 1013.26 1013.57 1013.99 1014.45 1014.88 1015.17 1015.28 1015.15 1014.78 1014.21 1013.51 1012.76 1012.05 1011.47 1011.06 1010.84 1010.82 1010.97 1011.25 1011.61 1012.03 1012.47 1012.92 1013.38 1013.84 1014.30 1014.75 1015.17 1015.55 1015.87 1016.11 1016.26 1016.33 1016.33 1016.30 1016.26 1016.24 1016.25 1016.30
1013.64 1013.54 1013.42 1013.33 1013.33 1013.46 1013.71 1014.07 1014.47 1014.84 1015.12 1015.25 1015.18 1014.91 1014.46 1013.90 1013.28 1012.67 1012.15 1011.75 1011.48 1011.36 1011.37 1011.49 1011.68 1011.93 1012.22 1012.55 1012.92 1013.33 1013.77 1014.22 1014.68 1015.10 1015.47 1015.76 1015.96 1016.09 1016.15 1016.16 1016.16 1016.18 1016.23 1016.31
1013.76 1013.70 1013.62 1013.57 1013.59 1013.70 1013.92 1014.23 1014.58 1014.92 1015.19 1015.33 1015.32 1015.14 1014.81 1014.37 1013.87 1013.35 1012.88 1012.47 1012.16 1011.93 1011.79 1011.72 1011.73 1011.79 1011.92 1012.11 1012.37 1012.71 1013.11 1013.56 1014.03 1014.49 1014.92 1015.28 1015.57 1015.77 1015.91 1015.99 1016.06 1016.13 1016.22 1016.34
1013.87 1013.86 1013.84 1013.84 1013.90 1014.03 1014.25 1014.54 1014.86 1015.17 1015.42 1015.58 1015.60 1015.50 1015.26 1014.92 1014.51 1014.06 1013.62 1013.19 1012.81 1012.47 1012.18 1011.95 1011.76 1011.64 1011.60 1011.64 1011.78 1012.03 1012.37 1012.79 1013.27 1013.76 1014.24 1014.67 1015.04 1015.35 1015.58 1015.77 1015.92 1016.06 1016.21 1016.36
1014.02 1014.07 1014.12 1014.19 1014.31 1014.48 1014.72 1015.00 1015.31 1015.60 1015.84 1015.99 1016.04 1015.98 1015.80 1015.52 1015.16 1014.76 1014.32 1013.88 1013.43 1012.99 1012.57 1012.18 1011.83 1011.54 1011.33 1011.23 1011.23 1011.37 1011.63 1011.99 1012.43 1012.93 1013.44 1013.93 1014.39 1014.79 1015.14 1015.43 1015.69 1015.92 1016.14 1016.34
1014.28 1014.39 1014.51 1014.65 1014.83 1015.05 1015.32 1015.61 1015.91 1016.18 1016.40 1016.54 1016.59 1016.53 1016.38 1016.13 1015.81 1015.43 1014.99 1014.52 1014.03 1013.51 1012.99 1012.48 1012.00 1011.56 1011.20 1010.95 1010.81 1010.82 1010.96 1011.23 1011.60 1012.06 1012.56 1013.08 1013.60 1014.09 1014.54 1014.96 1015.33 1015.66 1015.96 1016.23
1014.69 1014.84 1015.02 1015.22 1015.45 1015.72 1016.00 1016.29 1016.57 1016.82 1017.01 1017.12 1017.15 1017.09 1016.95 1016.71 1016.41 1016.04 1015.61 1015.14 1014.62 1014.06 1013.48 1012.89 1012.31 1011.76 1011.28 1010.89 1010.60 1010.45 1010.45 1010.57 1010.83 1011.19 1011.64 1012.14 1012.68 1013.24 1013.79 1014.31 1014.80 1015.24 1015.64 1015.97
1015.24 1015.42 1015.63 1015.87 1016.13 1016.41 1016.69 1016.96 1017.21 1017.41 1017.56 1017.64 1017.64 1017.56 1017.42 1017.20 1016.91 1016.56 1016.16 1015.71 1015.20 1014.65 1014.05 1013.43 1012.79 1012.17 1011.59 1011.07 1010.64 1010.32 1010.13 1010.08 1010.17 1010.39 1010.73 1011.17 1011.69 1012.27 1012.88 1013.50 1014.10 1014.66 1015.15 1015.57
1015.88 1016.07 1016.29 1016.52 1016.78 1017.03 1017.28 1017.50 1017.70 1017.85 1017.95 1017.98 1017.96 1017.88 1017.73 1017.53 1017.28 1016.98 1016.62 1016.21 1015.75 1015.24 1014.67 1014.06 1013.41 1012.75 1012.09 1011.46 1010.89 1010.40 1010.02 1009.77 1009.66 1009.69 1009.88 1010.21 1010.67 1011.24 1011.88 1012.57 1013.27 1013.93 1014.52 1015.03
1016.53 1016.72 1016.91 1017.12 1017.32 1017.52 1017.70 1017.85 1017.98 1018.06 1018.11 1018.11 1018.07 1017.98 1017.86 1017.69 1017.49 1017.24 1016.96 1016.62 1016.23 1015.79 1015.28 1014.70 1014.07 1013.40 1012.69 1011.98 1011.28 1010.63 1010.06 1009.60 1009.28 1009.12 1009.13 1009.32 1009.68 1010.20 1010.85 1011.58 1012.34 1013.10 1013.80 1014.40
1017.14 1017.30 1017.46 1017.60 1017.72 1017.83 1017.92 1017.98 1018.02 1018.04 1018.04 1018.01 1017.96 1017.89 1017.80 1017.68 1017.54 1017.36 1017.15 1016.89 1016.58 1016.21 1015.77 1015.25 1014.66 1014.00 1013.28 1012.51 1011.72 1010.93 1010.20 1009.55 1009.03 1008.67 1008.49 1008.53 1008.77 1009.22 1009.84 1010.58 1011.40 1012.23 1013.02 1013.72
1017.66 1017.79 1017.89 1017.95 1017.98 1017.98 1017.96 1017.93 1017.89 1017.84 1017.80 1017.75 1017.71 1017.66 1017.60 1017.53 1017.44 1017.33 1017.18 1016.99 1016.75 1016.44 1016.07 1015.61 1015.07 1014.44 1013.72 1012.93 1012.09 1011.22 1010.36 1009.56 1008.87 1008.34 1007.99 1007.88 1007.99 1008.35 1008.92 1009.65 1010.49 1011.38 1012.24 1013.04
1018.10 1018.19 1018.22 1018.20 1018.12 1018.02 1017.90 1017.77 1017.65 1017.55 1017.48 1017.42 1017.38 1017.36 1017.33 1017.30 1017.25 1017.17 1017.06 1016.91 1016.71 1016.45 1016.12 1015.72 1015.22 1014.64 1013.95 1013.17 1012.32 1011.41 1010.49 1009.60 1008.80 1008.13 1007.65 1007.39 1007.39 1007.64 1008.14 1008.83 1009.67 1010.58 1011.50 1012.37
1018.47 1018.53 1018.50 1018.40 1018.24 1018.04 1017.82 1017.62 1017.44 1017.29 1017.19 1017.13 1017.10 1017.08 1017.07 1017.05 1017.01 1016.94 1016.83 1016.68 1016.49 1016.24 1015.93 1015.56 1015.11 1014.57 1013.94 1013.22 1012.40 1011.51 1010.58 1009.66 1008.79 1008.04 1007.46 1007.09 1006.97 1007.12 1007.53 1008.16 1008.96 1009.87 1010.82 1011.74
1018.84 1018.87 1018.79 1018.62 1018.39 1018.11 1017.83 1017.56 1017.34 1017.16 1017.04 1016.97 1016.93 1016.91 1016.89 1016.86 1016.79 1016.69 1016.55 1016.35 1016.13 1015.86 1015.55 1015.19 1014.78 1014.30 1013.74 1013.09 1012.35 1011.53 1010.65 1009.75 1008.88 1008.09 1007.44 1006.99 1006.77 1006.81 1007.11 1007.65 1008.39 1009.26 1010.21 1011.16
Thickness
5846 5840 5833 5839 5846 5845 5839 5832 5826 5830 5838 5829 5823 5824 5827 5828 5824 5820 5818 5815 5813 5811 5812 5809 5805 5801 5797 5792 5786 5783 5780 5777 5775 5773 5771 5768 5767 5767 5767 5766 5764 5763 5762 5762
5831 5830 5843 5848 5845 5841 5837 5829 5828 5830 5835 5830 5826 5826 5833 5832 5827 5827 5824 5820 5818 5816 5813 5810 5806 5803 5799 5793 5789 5785 5782 5780 5777 5775 5773 5771 5770 5769 5769 5768 5765 5764 5763 5762
5824 5836 5844 5839 5834 5830 5832 5830 5829 5826 5829 5832 5825 5823 5828 5834 5834 5832 5831 5830 5828 5822 5817 5813 5809 5806 5803 5798 5794 5791 5786 5783 5780 5778 5776 5773 5770 5769 5768 5767 5765 5764 5763 5762
5827 5838 5834 5832 5831 5832 5824 5838 5835 5828 5821 5821 5823 5812 5825 5832 5829 5830 5833 5833 5832 5830 5825 5820 5815 5810 5807 5804 5800 5795 5790 5786 5782 5779 5777 5773 5769 5767 5767 5766 5766 5765 5763 5762
5821 5829 5826 5824 5832 5836 5833 5841 5835 5830 5824 5821 5823 5815 5827 5834 5827 5833 5838 5839 5838 5836 5831 5825 5821 5816 5813 5810 5805 5799 5793 5788 5785 5782 5778 5774 5772 5771 5770 5767 5764 5763 5763 5762
5826 5834 5835 5834 5839 5840 5836 5832 5828 5827 5825 5803 5815 5811 5817 5835 5834 5840 5844 5844 5842 5840 5836 5830 5827 5821 5816 5813 5808 5803 5795 5790 5787 5783 5780 5776 5772 5769 5767 5764 5763 5763 5763 5761
5806 5818 5830 5837 5824 5827 5828 5816 5800 5795 5796 5802 5820 5812 5822 5843 5849 5848 5846 5846 5846 5844 5839 5832 5827 5822 5818 5814 5810 5805 5798 5791 5789 5786 5782 5778 5774 5770 5766 5765 5763 5761 5761 5760
5793 5796 5818 5828 5827 5821 5823 5821 5799 5785 5790 5807 5811 5810 5833 5850 5853 5854 5853 5852 5849 5845 5842 5837 5831 5826 5821 5817 5812 5807 5801 5795 5791 5787 5783 5780 5776 5774 5771 5767 5765 5762 5761 5759
5799 5800 5820 5826 5833 5831 5818 5820 5832 5815 5806 5801 5811 5820 5837 5848 5847 5850 5850 5849 5847 5846 5844 5840 5836 5831 5826 5820 5815 5810 5803 5798 5794 5790 5784 5780 5776 5773 5770 5766 5764 5762 5759 5759
5807 5795 5808 5818 5823 5823 5829 5827 5816 5808 5787 5784 5800 5809 5821 5831 5837 5843 5845 5845 5846 5846 5845 5842 5838 5835 5830 5825 5818 5813 5806 5800 5796 5791 5787 5782 5778 5773 5770 5767 5762 5760 5758 5756
5806 5792 5795 5804 5803 5807 5810 5811 5812 5811 5809 5791 5789 5809 5839 5836 5839 5842 5846 5847 5847 5846 5844 5841 5838 5836 5832 5826 5820 5813 5807 5801 5796 5792 5787 5782 5778 5774 5770 5766 5762 5758 5756 5753
5796 5795 5788 5797 5812 5820 5818 5815 5809 5794 5791 5799 5800 5813 5845 5843 5846 5846 5846 5847 5848 5847 5845 5842 5838 5834 5830 5825 5820 5813 5808 5803 5798 5793 5787 5782 5777 5773 5769 5765 5761 5757 5754 5751
5786 5782 5768 5773 5785 5799 5802 5809 5814 5814 5807 5798 5794 5809 5840 5841 5842 5844 5843 5843 5844 5842 5841 5839 5835 5830 5827 5823 5819 5814 5810 5804 5799 5793 5787 5781 5776 5772 5768 5763 5759 5756 5752 5748
5782 5777 5774 5772 5784 5794 5790 5796 5804 5805 5795 5795 5800 5812 5827 5830 5832 5836 5838 5839 5840 5838 5836 5834 5831 5827 5824 5821 5817 5813 5809 5806 5800 5794 5787 5781 5776 5772 5767 5762 5758 5753 5749 5745
5773 5767 5774 5784 5792 5793 5790 5792 5795 5796 5801 5799 5805 5810 5818 5825 5829 5832 5835 5835 5833 5832 5831 5829 5827 5824 5821 5817 5814 5811 5808 5804 5799 5793 5787 5781 5776 5771 5765 5760 5756 5752 5748 5744
5762 5760 5765 5766 5778 5782 5780 5787 5791 5792 5797 5800 5803 5805 5822 5826 5828 5826 5827 5828 5826 5826 5827 5827 5825 5822 5818 5815 5812 5808 5805 5802 5797 5791 5786 5781 5774 5768 5763 5758 5753 5749 5744 5740
5754 5751 5750 5755 5767 5766 5762 5780 5785 5787 5793 5796 5792 5802 5814 5813 5814 5817 5820 5822 5822 5824 5824 5823 5822 5820 5818 5815 5812 5807 5804 5800 5794 5789 5784 5779 5773 5766 5761 5756 5750 5745 5740 5736
5740 5742 5748 5752 5746 5733 5769 5789 5789 5784 5786 5794 5797 5802 5806 5807 5812 5816 5817 5817 5817 5820 5821 5821 5820 5818 5817 5814 5811 5807 5803 5797 5792 5786 5781 5777 5771 5765 5759 5753 5747 5741 5736 5731
5736 5736 5741 5743 5737 5746 5759 5773 5777 5774 5773 5786 5787 5791 5798 5804 5808 5809 5813 5814 5814 5817 5819 5819 5819 5819 5816 5812 5809 5803 5798 5794 5788 5783 5779 5775 5770 5763 5756 5750 5743 5737 5732 5727
5727 5730 5733 5733 5729 5731 5753 5770 5776 5770 5759 5777 5780 5781 5787 5792 5789 5797 5804 5807 5809 5811 5813 5813 5814 5814 5811 5808 5805 5799 5793 5789 5784 5781 5777 5772 5767 5760 5753 5747 5740 5733 5728 5723
5713 5715 5722 5725 5725 5740 5753 5763 5762 5743 5751 5769 5774 5775 5778 5779 5783 5788 5794 5797 5800 5803 5805 5806 5806 5804 5803 5801 5798 5792 5788 5784 5782 5778 5772 5767 5762 5756 5750 5743 5736 5730 5725 5720
5710 5714 5713 5719 5716 5725 5746 5751 5746 5747 5758 5763 5765 5768 5769 5771 5776 5780 5783 5786 5790 5792 5795 5797 5795 5794 5794 5792 5789 5785 5782 5780 5776 5772 5766 5760 5756 5752 5746 5737 5730 5725 5721 5715
5707 5713 5719 5719 5721 5728 5738 5739 5742 5747 5748 5752 5756 5759 5760 5761 5765 5769 5772 5775 5779 5782 5785 5786 5785 5783 5782 5782 5781 5777 5775 5773 5769 5765 5759 5754 5749 5745 5740 5733 5726 5720 5715 5714
5697 5701 5705 5706 5715 5721 5726 5730 5733 5738 5740 5745 5748 5751 5752 5752 5755 5758 5761 5764 5767 5771 5774 5775 5774 5773 5772 5773 5772 5770 5767 5765 5761 5756 5752 5747 5741 5736 5732 5728 5724 5718 5714 5711
5688 5692 5695 5695 5704 5709 5714 5719 5724 5728 5732 5736 5739 5742 5743 5745 5745 5747 5749 5753 5756 5759 5763 5764 5763 5762 5763 5763 5762 5761 5758 5755 5752 5748 5745 5741 5736 5731 5726 5722 5718 5715 5710 5708
5681 5683 5685 5690 5697 5700 5704 5711 5716 5717 5720 5724 5727 5730 5733 5735 5736 5738 5740 5744 5746 5749 5752 5753 5754 5754 5753 5753 5752 5750 5749 5747 5743 5740 5737 5734 5731 5726 5722 5716 5710 5703 5701 5697